sat.trackr.live / text

‹ back to catalog

STARLINK-11361 [DTC]

NORAD 61585 · 2024-187M

PAYLOAD ACTIVE UNKNOWN

§ Identity

Operator
Country
US
Launch date
2024-10-18
Launch site
AFETR
Launch vehicle
Mass (kg)
RCS (m²)

Purposes: comms

External: N2YO · Heavens-Above · Gunter

§ Orbital elements

Epoch: 2026-09-21T16:43:33.666816Z

Period
91.74 min
Inclination
53.1571°
Eccentricity
0.0000905
Mean motion
15.69725407 rev/d
Perigee alt
359.1 km
Apogee alt
360.3 km
Semi-major
6,737.8 km
B*
6.9629e-4
RAAN
50.1424°
Arg perigee
103.1675°
Mean anomaly
256.9444°
Rev number
11,153

§ Raw data

STARLINK-11361 [DTC]1 61585U 24187M   26264.69691744  .00084684  00000+0  69629-3 0  99972 61585  53.1571  50.1424 0000905 103.1675 256.9444 15.69725407111533

JSON: /api/v1/satellites/61585 · /tle

For live sub-satellite position, see the globe view (requires WebGL).

§ Visibility from observer

Set your observer location to see the next 7 days of passes ≥ 10°. The values pass through the URL so the page stays shareable.

No JS? Fill the form by hand. The geolocation button needs JavaScript.